Regional Weather Roundup
Issued by NWS Upton, NY

Home | Current Version | Previous Version | Text Only | Print | Product List | Glossary On
Versions: 1 2 3 4 5 6 7 8 9 10 11 12 13 14 15 16 17 18 19 20 21 22 23 24 25 26 27 28 29
000
ASUS41 KOKX 210108
RWROKX

REGIONAL WEATHER ROUNDUP
NATIONAL WEATHER SERVICE NEW YORK NY
800 PM EST MON NOV 20 2017

NOTE: "FAIR" INDICATES FEW OR NO CLOUDS BELOW 12,000 FEET WITH NO
SIGNIFICANT WEATHER AND/OR OBSTRUCTIONS TO VISIBILITY.

NYZ071-072-176-178-NJZ106-104-210200-
NEW YORK CITY METRO AREA

CITY           SKY/WX    TMP DP  RH WIND       PRES   REMARKS
Central Park   CLEAR     44  24  45 MISG      30.13R
Bronx Bot Gard   N/A     43  25  49 S5        30.12S
LaGuardia APRT PTCLDY    45  23  42 SW16G22   30.11R
Kennedy INTL   PTCLDY    45  28  51 SW20G25   30.13R
Breezy Point     N/A     43 N/A N/A SW12G21     N/A
Newark/Liberty PTCLDY    42  24  49 SW14      30.12R
Teterboro      CLEAR     43  24  47 SW12      30.10R
$$

NYZ177-179-078>081-210200-
LONG ISLAND NEW YORK

CITY           SKY/WX    TMP DP  RH WIND       PRES   REMARKS
Jones Beach      N/A     45 N/A N/A W18G30      N/A
Matinecock PT    N/A     46 N/A N/A SW26G32     N/A
Farmingdale    CLEAR     43  25  49 W13       30.11R
MacArthur/ISP  PTCLDY    41  27  57 SW8       30.10S
Shirley        CLEAR     43  27  53 SW7       30.12R
Mt Sinai Harb    N/A    N/A N/A N/A SW5         N/A
Westhampton    CLEAR     41  24  51 W12       30.12R
East Hampton   MOCLDY    42  25  51 W15G21    30.10R
Southold       NOT AVBL
Montauk          N/A     46  28  49 W12G23    30.10R
$$

NYZ052-065-067-210200-
HUDSON VALLEY

CITY           SKY/WX    TMP DP  RH WIND       PRES   REMARKS
White Plains   CLEAR     41  24  51 W7        30.08R
Larchmont Harb   N/A     45 N/A N/A SW21        N/A
Croton On Huds   N/A     43 N/A N/A SW13        N/A
Newburgh       MOCLDY    39  27  60 W8        30.07R WCI  34
Montgomery     CLEAR     34  24  67 CALM      30.06R
Poughkeepsie   CLEAR     37  24  59 W6        30.06R WCI  32
Albany         CLOUDY    37  29  72 CALM      30.04F
$$

NJZ001-105-106-008-010-013-015-019>022-104-210200-
NEW JERSEY

CITY           SKY/WX    TMP DP  RH WIND       PRES   REMARKS
Newark/Liberty PTCLDY    42  24  49 SW14      30.12R
Teterboro      CLEAR     43  24  47 SW12      30.10R
Caldwell       CLEAR     40  24  53 SW6       30.11R
Somerville     CLEAR     35  25  66 S3        30.11R
Linden         FAIR      42  22  44 W7        30.13R
Perth Amboy      N/A     41 N/A N/A SW9         N/A
Sussex         CLEAR     36  25  64 SW3       30.08R
Andover          N/A     38  23  55 S3        30.09R
Trenton        CLEAR     41  23  48 W3        30.13R
Millville      CLEAR     34  28  79 W3        30.18R
Atlantic City  CLEAR     39  27  62 SW5       30.18R
Wrightstown    CLEAR     37  25  62 S6        30.12R WCI  32
Toms River     CLEAR     36  25  64 SW7       30.16R WCI  30
Belmar         CLEAR     40  24  53 SW6       30.15S
$$

PAZ047>061-062-071-210200-
EASTERN PENNSYLVANIA

CITY           SKY/WX    TMP DP  RH WIND       PRES   REMARKS
Philadelphia   CLEAR     43  25  49 SW7       30.16R
Allentown      CLEAR     37  23  56 CALM      30.11S
Scranton       CLEAR     38  24  57 SW8       30.05S WCI  32
$$

CTZ002-004>006-009-010-012-RIZ004-006-007-MAZ004-011-015-210200-
SOUTHERN NEW ENGLAND
 IN CT

CITY           SKY/WX    TMP DP  RH WIND       PRES   REMARKS
Bradley INTL   CLOUDY    41  26  55 SW6       30.05R
Hartford       CLOUDY    44  26  49 SW6       30.06R
Danbury        CLEAR     38  24  57 VRB3      30.08R
Wtrbury/Oxford CLEAR     39  24  55 W8        30.06R WCI  33
Norwalk Harbor   N/A     43 N/A N/A W16         N/A
Bridgeport     CLEAR     44  27  51 W9G20     30.09R
Meriden        CLOUDY    42  25  50 SW6       30.08R
New Haven      CLEAR     45  26  47 W12G22    30.09R
Chester        CLOUDY    43  23  45 W8        30.07R
Groton         CLOUDY    45  25  45 W14G24    30.07R
Wilimantic     CLOUDY    43  25  49 SW3       30.06R

 IN RI

CITY           SKY/WX    TMP DP  RH WIND       PRES   REMARKS
Providence     MOCLDY    42  26  53 SW7       30.06R
Block Island   CLOUDY    45  27  49 W21G28    30.08
Westerly       MOCLDY    45  25  45 VRB6      30.08R
 IN MA

CITY           SKY/WX    TMP DP  RH WIND       PRES   REMARKS
Boston         PTCLDY    40  23  50 SW12G22   30.01R WCI  33
Worcester      MOCLDY    35  23  61 W14G23    29.98R WCI  26
Westfield      CLOUDY    39  28  64 CALM      30.05R
Provincetown   CLEAR     41  26  55 W25G33    30.02R
Nantucket      PTCLDY    44  27  51 W18G26    30.06R
$$

ANZ330-335-338-340-345-350-353-355-210200-
COASTAL MARINE OBSERVATIONS


STATION/POSITION TIME  SKY/WX   TEMP    WIND        PRES    VSBY  WAVE
                                AIR SEA DIR/SP/G                  HT/PER
                 (UTC)          (F)     (DEG/KT/KT) (MB)    (MI)  (FT/S)
NY HARB ENTRANCE 2350            47 58  250/ 19/ 23 1019.1          3/ 4
20 S FIRE ISLAND 2350            48 57  270/ 23/ 29 1019.5          5/ 6
GREAT SOUTH BAY  0030            45 47  260/ 17/ 21   N/A
HUDSON CANYON    2350            50 59  280/ 19/ 27 1019.9          7/ 6
KINGS POINT      0024            46 50  280/ 13/ 16 1020.1
EXECUTION ROCKS  0030            47     210/ 17/ 23   N/A
WESTERN LI SOUND 2349            47     240/ 19/ 29   N/A           2/ 3
CENTRAL LI SOUND NOT AVBL
ROBBINS REEF     0024            45     240/ 18/ 22 1020.0
$$


>>>>>>>>>>>>>>>>>>>>>>>>>>>> KEY <<<<<<<<<<<<<<<<<<<<<<<<<<<
>                                                          <
>     SKY/WX - Sky Condition/Present Weather               <
>     TMP    - Temperature in Fahrenheit                   <
>     DP     - Dew Point in Fahrenheit                     <
>     RH     - Relative Humidity in Percent                <
>     WIND   - Direction (from) and Speed in MPH           <
>     PRES   - Mean Sea Level Pressure (inches of Hg)      <
>     WCI    - Wind Chill Index                            <
>     VSB    - VISIBILITY IN MILES                         <
>     HX     - HEAT INDEX                                  <
>     TC     - TEMPERATURE IN CELSIUS                      <
>     VRB    - VARIABLE WIND DIRECTION                     <
>                                                          <
>>>>>>>>>>>>>>>>>>>>>>>>>>>> KEY <<<<<<<<<<<<<<<<<<<<<<<<<<<




USA.gov is the U.S. government's official web portal to all federal, state and local government web resources and services.